| time (UTC) | temp F | wind direction | speed MPH | gust MPH | rain 1hr in | rain 24hr in | rain mn in | humidity % | barometer mb |
| 20260506001516 | 58 | 146 | 11.0 | 17.0 | 0.00 | 0.00 | 0.00 | 73 | 1028.4 |
| 20260506000022 | 57 | 103 | 8.0 | 15.0 | 0.00 | 0.00 | 0.00 | 75 | 1028.4 |
| 20260505234600 | 56 | 102 | 7.0 | 15.0 | 0.00 | 0.00 | 0.00 | 77 | 1028.2 |
| 20260505231524 | 54 | 108 | 9.0 | 15.0 | 0.00 | 0.00 | 0.00 | 79 | 1027.7 |
| 20260505230014 | 54 | 117 | 8.0 | 14.0 | 0.00 | 0.00 | 0.00 | 79 | 1027.7 |
| 20260505224528 | 54 | 88 | 9.0 | 14.0 | 0.00 | 0.00 | 0.00 | 77 | 1027.3 |
| 20260505223024 | 55 | 117 | 10.0 | 18.0 | 0.00 | 0.00 | 0.00 | 77 | 1027.1 |
| 20260505221518 | 55 | 113 | 11.0 | 16.0 | 0.00 | 0.00 | 0.00 | 78 | 1027.0 |
| 20260505220008 | 54 | 100 | 10.0 | 15.0 | 0.00 | 0.00 | 0.00 | 78 | 1027.0 |
| 20260505214519 | 54 | 109 | 8.0 | 14.0 | 0.00 | 0.00 | 0.00 | 78 | 1026.9 |
| 20260505213023 | 54 | 124 | 9.0 | 14.0 | 0.00 | 0.00 | 0.00 | 77 | 1026.8 |
| 20260505211507 | 55 | 112 | 10.0 | 14.0 | 0.00 | 0.00 | 0.00 | 77 | 1026.8 |
| 20260505210022 | 55 | 107 | 9.0 | 14.0 | 0.00 | 0.00 | 0.00 | 77 | 1026.7 |
| 20260505204503 | 55 | 118 | 7.0 | 14.0 | 0.00 | 0.00 | 0.00 | 76 | 1026.6 |
| 20260505201522 | 56 | 93 | 10.0 | 17.0 | 0.00 | 0.00 | 0.00 | 74 | 1026.6 |
| 20260505200012 | 56 | 125 | 9.0 | 16.0 | 0.00 | 0.00 | 0.00 | 74 | 1026.7 |
| 20260505194516 | 56 | 119 | 9.0 | 16.0 | 0.00 | 0.00 | 0.00 | 73 | 1026.6 |
| 20260505193023 | 56 | 144 | 10.0 | 16.0 | 0.00 | 0.00 | 0.00 | 73 | 1026.5 |
| 20260505191511 | 56 | 132 | 10.0 | 14.0 | 0.00 | 0.00 | 0.00 | 72 | 1026.6 |
| 20260505190017 | 56 | 128 | 8.0 | 12.0 | 0.00 | 0.00 | 0.00 | 72 | 1026.5 |
| 20260505184528 | 56 | 138 | 7.0 | 11.0 | 0.00 | 0.00 | 0.00 | 71 | 1026.6 |
| 20260505183034 | 57 | 107 | 7.0 | 12.0 | 0.00 | 0.00 | 0.00 | 70 | 1026.7 |
| 20260505181525 | 57 | 118 | 7.0 | 12.0 | 0.00 | 0.00 | 0.00 | 69 | 1026.6 |
| 20260505180008 | 58 | 113 | 8.0 | 12.0 | 0.00 | 0.00 | 0.00 | 68 | 1026.4 |
| 20260505174517 | 59 | 117 | 10.0 | 18.0 | 0.00 | 0.00 | 0.00 | 66 | 1026.3 |
| 20260505173023 | 59 | 126 | 11.0 | 17.0 | 0.00 | 0.00 | 0.00 | 66 | 1026.3 |
| 20260505171513 | 59 | 124 | 11.0 | 16.0 | 0.00 | 0.00 | 0.00 | 66 | 1026.2 |
| 20260505170019 | 60 | 142 | 10.0 | 20.0 | 0.00 | 0.00 | 0.00 | 65 | 1026.1 |
| 20260505164525 | 59 | 108 | 10.0 | 16.0 | 0.00 | 0.00 | 0.00 | 66 | 1026.2 |
| 20260505163014 | 59 | 130 | 8.0 | 14.0 | 0.00 | 0.00 | 0.00 | 67 | 1026.2 |
| 20260505161527 | 59 | 138 | 8.0 | 16.0 | 0.00 | 0.00 | 0.00 | 67 | 1026.1 |
| 20260505153024 | 57 | 137 | 5.0 | 9.0 | 0.00 | 0.00 | 0.00 | 76 | 1026.1 |
| 20260505151514 | 57 | 94 | 4.0 | 8.0 | 0.00 | 0.00 | 0.00 | 77 | 1026.1 |
| 20260505124526 | 60 | 148 | 3.0 | 8.0 | 0.00 | 0.00 | 0.00 | 74 | 1026.1 |
| 20260505123016 | 60 | 160 | 5.0 | 8.0 | 0.00 | 0.00 | 0.00 | 74 | 1026.1 |
| 20260505120028 | 61 | 182 | 4.0 | 7.0 | 0.00 | 0.00 | 0.00 | 73 | 1026.2 |
| 20260505114520 | 61 | 147 | 4.0 | 7.0 | 0.00 | 0.00 | 0.00 | 75 | 1025.9 |
| 20260505113030 | 61 | 141 | 3.0 | 6.0 | 0.00 | 0.00 | 0.00 | 77 | 1025.9 |
| 20260505111525 | 62 | 151 | 2.0 | 5.0 | 0.00 | 0.00 | 0.00 | 76 | 1025.9 |
| 20260505101527 | 63 | 188 | 2.0 | 9.0 | 0.00 | 0.00 | 0.00 | 77 | 1025.3 |
| 20260505100027 | 64 | 232 | 5.0 | 10.0 | 0.00 | 0.00 | 0.00 | 76 | 1025.1 |
| 20260505094529 | 64 | 215 | 7.0 | 10.0 | 0.00 | 0.00 | 0.00 | 75 | 1025.1 |
| 20260505091518 | 65 | 217 | 7.0 | 17.0 | 0.00 | 0.00 | 0.00 | 74 | 1025.1 |
| 20260505090025 | 65 | 256 | 10.0 | 17.0 | 0.00 | 0.00 | 0.00 | 73 | 1025.1 |
| 20260505084534 | 66 | 219 | 10.0 | 16.0 | 0.00 | 0.00 | 0.00 | 70 | 1025.0 |
| 20260505083021 | 66 | 224 | 11.0 | 16.0 | 0.00 | 0.00 | 0.00 | 70 | 1025.0 |
| 20260505081527 | 66 | 244 | 8.0 | 15.0 | 0.00 | 0.00 | 0.00 | 70 | 1024.8 |
| 20260505080015 | 67 | 186 | 10.0 | 14.0 | 0.00 | 0.00 | 0.00 | 69 | 1024.8 |
| 20260505074523 | 67 | 210 | 8.0 | 16.0 | 0.00 | 0.00 | 0.00 | 69 | 1024.7 |
| 20260505073037 | 67 | 227 | 7.0 | 16.0 | 0.00 | 0.00 | 0.00 | 69 | 1024.6 |
| 20260505071521 | 67 | 238 | 11.0 | 16.0 | 0.00 | 0.00 | 0.00 | 68 | 1024.6 |
| 20260505070036 | 68 | 209 | 8.0 | 14.0 | 0.00 | 0.00 | 0.00 | 68 | 1024.6 |
| 20260505064527 | 68 | 215 | 6.0 | 15.0 | 0.00 | 0.00 | 0.00 | 68 | 1024.7 |
| 20260505063022 | 67 | 227 | 12.0 | 15.0 | 0.00 | 0.00 | 0.00 | 66 | 1024.6 |
| 20260505061507 | 68 | 257 | 8.0 | 13.0 | 0.00 | 0.00 | 0.00 | 63 | 1024.6 |
| 20260505053007 | 68 | 256 | 5.0 | 8.0 | 0.00 | 0.00 | 0.00 | 60 | 1024.9 |
| 20260505051514 | 67 | 247 | 7.0 | 11.0 | 0.00 | 0.00 | 0.00 | 61 | 1024.9 |
| 20260505041514 | 70 | 260 | 4.0 | 7.0 | 0.00 | 0.00 | 0.00 | 54 | 1025.6 |
| 20260505040013 | 70 | 39 | 3.0 | 9.0 | 0.00 | 0.00 | 0.00 | 53 | 1025.8 |
| 20260505034510 | 70 | 82 | 4.0 | 9.0 | 0.00 | 0.00 | 0.00 | 53 | 1026.1 |
| 20260505033010 | 68 | 101 | 3.0 | 9.0 | 0.00 | 0.00 | 0.00 | 55 | 1026.3 |
| 20260505031520 | 68 | 33 | 4.0 | 9.0 | 0.00 | 0.00 | 0.00 | 56 | 1026.3 |
| 20260505030010 | 67 | 53 | 3.0 | 10.0 | 0.00 | 0.00 | 0.00 | 57 | 1026.4 |
| 20260505024513 | 66 | 86 | 4.0 | 12.0 | 0.00 | 0.00 | 0.00 | 59 | 1026.5 |
| 20260505023012 | 65 | 155 | 3.0 | 10.0 | 0.00 | 0.00 | 0.00 | 62 | 1026.6 |
| 20260505021509 | 65 | 75 | 5.0 | 10.0 | 0.00 | 0.00 | 0.00 | 62 | 1026.6 |
| 20260505020010 | 64 | 63 | 4.0 | 10.0 | 0.00 | 0.00 | 0.00 | 63 | 1026.6 |
| 20260505014509 | 63 | 103 | 7.0 | 12.0 | 0.00 | 0.00 | 0.00 | 64 | 1026.6 |
| 20260505013015 | 62 | 76 | 5.0 | 11.0 | 0.00 | 0.00 | 0.00 | 65 | 1026.6 |
| 20260505011514 | 61 | 95 | 5.0 | 9.0 | 0.00 | 0.00 | 0.00 | 67 | 1026.6 |
| 20260505004517 | 60 | 96 | 4.0 | 13.0 | 0.00 | 0.00 | 0.00 | 70 | 1026.6 |
| 20260505003016 | 59 | 127 | 8.0 | 15.0 | 0.00 | 0.00 | 0.00 | 72 | 1026.4 |